Location: PACMO
(41.3967°N, 90.3760°W)
Time: 23:35:06
(UTC-05:00)

Amateur Radio Satellites - All Passes

Search period start: 18 April 2015 23:05
Search period end: 19 April 2015 23:05
Location: PACMO, 41.3967°N, 90.3760°W

Satellite Date Start Highest point End Downlink Frequencies (MHz)
Time Altitude Azimuth
BUGSAT 1 18 Apr 23:11:10 23:12:07 11° 89° (E) 23:13:20 437.445
Cosmos 2491 18 Apr 23:11:29 23:19:20 41° 88° (E) 23:27:24 435.465 / 435.565
QB50P2 18 Apr 23:15:07 23:18:12 20° 92° (E) 23:21:24 145.880/145.840
50 SAT 18 Apr 23:16:57 23:20:52 60° 260° (W) 23:24:51 437.505
Oscar 11 18 Apr 23:18:22 23:19:54 11° 272° (W) 23:21:11 145.826/435.025
TISAT 1 18 Apr 23:20:15 23:22:04 13° 64° (ENE) 23:24:06 437.305
SPROUT 18 Apr 23:20:18 23:22:53 16° 66° (ENE) 23:25:37 437.525
YUBILEINY 18 Apr 23:24:53 23:33:42 87° 265° (W) 23:42:26 435.215
PHONESAT 2.4 18 Apr 23:35:27 23:39:02 79° 181° (S) 23:42:36 2401.200-2431.200
DX 1 18 Apr 23:36:44 23:39:50 19° 268° (W) 23:42:50 434.975-435.025
POPSAT HIP 1 18 Apr 23:37:47 23:41:40 33° 97° (E) 23:45:36 437.405
NANOSAT C BR1 18 Apr 23:38:11 23:42:05 34° 97° (E) 23:45:59 145.865
TIGRISAT 18 Apr 23:38:51 23:43:36 73° 102° (ESE) 23:48:17 435.000
UNISAT 6 18 Apr 23:39:33 23:44:17 76° 102° (ESE) 23:48:59 437.425
SO-50 18 Apr 23:44:53 23:49:05 27° 247° (WSW) 23:53:09 436.795
HUMSAT D 18 Apr 23:57:18 23:59:49 15° 270° (W) 00:02:11 437.325/437.525
O/OREOS (USA 219) 18 Apr 23:59:18 00:03:47 58° 109° (ESE) 00:08:18 437.305
POLYITAN 1 19 Apr 00:03:36 00:07:54 68° 101° (E) 00:12:12 437.675
VELOX 1 19 Apr 00:13:18 00:16:20 18° 268° (W) 00:19:14 145.980
DUCHIFAT 1 19 Apr 00:14:20 00:18:37 87° 103° (ESE) 00:22:54 145.980
ANTELSAT 19 Apr 00:21:32 00:25:59 41° 289° (WNW) 00:30:22 437.575/2403.000
VERMONT LUNAR 19 Apr 00:23:26 00:26:40 42° 198° (SSW) 00:29:51 437.305
QB50P1 19 Apr 00:26:47 00:31:03 67° 285° (WNW) 00:35:17 145.935-145.965
AISAT 19 Apr 00:29:35 00:31:17 12° 272° (W) 00:32:44 437.250
RS-15 19 Apr 00:30:11 00:41:36 66° 51° (NE) 00:53:35 29.354- 29.394
ITUPSAT 1 19 Apr 00:33:36 00:36:13 15° 63° (ENE) 00:39:02 437.325
ESTCUBE 1 19 Apr 00:39:57 00:43:07 18° 269° (W) 00:46:07 437.505/2401.250
CUBEBUG 1 19 Apr 00:41:20 00:44:24 18° 268° (W) 00:47:20 437.445
BUGSAT 1 19 Apr 00:44:00 00:48:04 60° 285° (WNW) 00:52:08 437.445
QB50P2 19 Apr 00:50:18 00:54:15 36° 289° (WNW) 00:58:10 145.880/145.840
TISAT 1 19 Apr 00:53:19 00:57:26 58° 259° (W) 01:01:35 437.305
SPROUT 19 Apr 00:54:33 00:58:39 46° 261° (W) 01:02:47 437.525
BEESAT 19 Apr 01:07:37 01:11:49 32° 69° (ENE) 01:16:06 436.000
Cosmos 2491 19 Apr 01:07:58 01:16:13 44° 288° (WNW) 01:24:25 435.465 / 435.565
Cosmos 2504 19 Apr 01:08:23 01:16:13 44° 72° (ENE) 01:23:33 435.465 / 435.565
SWISSCUBE 19 Apr 01:08:39 01:12:59 35° 70° (ENE) 01:17:22 437.505
PHONESAT 2.4 19 Apr 01:13:44 01:17:12 48° 197° (SSW) 01:20:38 2401.200-2431.200
POPSAT HIP 1 19 Apr 01:14:05 01:17:24 22° 292° (WNW) 01:20:37 437.405
NANOSAT C BR1 19 Apr 01:14:28 01:17:45 21° 292° (WNW) 01:20:57 145.865
TIGRISAT 19 Apr 01:17:28 01:19:48 13° 297° (WNW) 01:21:54 435.000
UNISAT 6 19 Apr 01:18:21 01:20:30 13° 297° (WNW) 01:22:27 437.425
YUBILEINY 19 Apr 01:24:05 01:29:24 17° 282° (WNW) 01:34:10 435.215
KKS-1 19 Apr 01:33:35 01:34:13 10° 62° (ENE) 01:35:06 437.445
O/OREOS (USA 219) 19 Apr 01:40:40 01:43:39 16° 308° (NW) 01:46:30 437.305
POLYITAN 1 19 Apr 01:41:38 01:43:20 12° 296° (WNW) 01:44:49 437.675
Oscar 19 19 Apr 01:50:47 01:55:17 30° 95° (E) 01:59:50 437.125/150
VERMONT LUNAR 19 Apr 02:02:20 02:03:42 12° 212° (SSW) 02:04:59 437.305
ITUPSAT 1 19 Apr 02:08:53 02:13:40 64° 259° (W) 02:18:26 437.325
AIST 1 19 Apr 02:09:51 02:14:12 76° 279° (W) 02:18:32
ITAMSAT 1 19 Apr 02:10:08 02:12:23 13° 88° (E) 02:14:57 435.822/435.867
STARS 19 Apr 02:42:57 02:46:54 35° 71° (ENE) 02:50:55 437.465
RS-15 19 Apr 02:43:12 02:53:38 39° 251° (WSW) 03:04:08 29.354- 29.394
BEESAT 19 Apr 02:45:35 02:49:41 27° 265° (W) 02:53:44 436.000
SWISSCUBE 19 Apr 02:46:59 02:50:56 25° 266° (W) 02:54:49 437.505
PHONESAT 2.4 19 Apr 02:52:56 02:55:00 15° 211° (SSW) 02:57:00 2401.200-2431.200
Cosmos 2504 19 Apr 03:02:04 03:09:31 38° 274° (W) 03:16:21 435.465 / 435.565
KKS-1 19 Apr 03:05:50 03:10:15 83° 257° (WSW) 03:14:43 437.445
Oscar 19 19 Apr 03:29:58 03:34:40 34° 292° (WNW) 03:39:17 437.125/150
Gurwin Techsat 1B 19 Apr 03:32:48 03:38:08 72° 102° (ESE) 03:43:26 435.225
AO-7 19 Apr 03:36:01 03:40:34 16° 87° (E) 03:45:38 29.400- 29.500
HORYU 2 19 Apr 03:41:02 03:43:52 17° 91° (E) 03:46:52 437.375
GONETS M04 19 Apr 03:46:21 03:54:05 34° 68° (ENE) 04:01:57
ITAMSAT 1 19 Apr 03:47:23 03:52:33 73° 287° (WNW) 03:57:43 435.822/435.867
JAS-2 19 Apr 04:03:36 04:08:35 23° 87° (E) 04:13:19 435.910
MOZHAYETS 4 19 Apr 04:15:03 04:19:13 34° 70° (ENE) 04:23:26
STARS 19 Apr 04:20:07 04:23:29 21° 267° (W) 04:26:48 437.465
AUBIESAT-1 19 Apr 04:35:01 04:37:00 13° 56° (NE) 04:39:12 437.475
BEESAT 2 19 Apr 04:46:47 04:50:41 44° 117° (ESE) 04:54:40 435.950
DANDE 19 Apr 04:49:27 04:55:29 37° 73° (ENE) 05:02:51 436.750
BEESAT 3 19 Apr 04:54:54 04:58:57 66° 120° (ESE) 05:03:04 437.485
CUSAT 1 19 Apr 04:58:50 05:05:30 54° 76° (ENE) 05:13:27 437.405
AIST 2 19 Apr 05:02:04 05:05:17 22° 113° (ESE) 05:08:36 435.215
Gurwin Techsat 1B 19 Apr 05:14:20 05:17:35 16° 298° (WNW) 05:20:37 435.225
HORYU 2 19 Apr 05:16:29 05:20:49 46° 288° (WNW) 05:25:07 437.375
M-CUBED/EXP-1 PRIME 19 Apr 05:17:36 05:21:50 35° 65° (ENE) 05:26:15 437.505
AO-7 19 Apr 05:26:20 05:34:43 84° 107° (ESE) 05:43:04 29.400- 29.500
CUBESAT XI-V 19 Apr 05:31:46 05:34:49 18° 66° (ENE) 05:38:01 437.345
GONETS M04 19 Apr 05:42:49 05:51:25 55° 269° (W) 05:59:53
JAS-2 19 Apr 05:47:37 05:54:19 58° 290° (WNW) 06:00:11 435.910
Cosmos 2499 19 Apr 05:52:25 05:59:30 33° 68° (ENE) 06:06:14 435.465 / 435.565
MOZHAYETS 4 19 Apr 05:52:42 05:56:31 24° 267° (W) 06:00:16
STRAND 1 19 Apr 05:53:30 05:56:46 18° 63° (ENE) 06:00:12 437.568
PRISM 19 Apr 06:02:51 06:06:09 23° 68° (ENE) 06:09:31 437.425
AUBIESAT-1 19 Apr 06:06:26 06:11:07 88° 253° (WSW) 06:15:59 437.475
BEESAT 2 19 Apr 06:25:51 06:29:03 21° 316° (NW) 06:32:12 435.950
DANDE 19 Apr 06:32:28 06:38:49 45° 266° (W) 06:46:25 436.750
BEESAT 3 19 Apr 06:34:52 06:37:27 16° 319° (NW) 06:39:56 437.485
AIST 2 19 Apr 06:39:38 06:43:39 39° 309° (NW) 06:47:43 435.215
CUSAT 1 19 Apr 06:42:02 06:48:09 32° 269° (W) 06:54:58 437.405
M-CUBED/EXP-1 PRIME 19 Apr 06:52:40 06:56:42 28° 261° (W) 07:00:49 437.505
CUBESAT XI-V 19 Apr 07:07:26 07:11:58 48° 262° (W) 07:16:27 437.345
AO-7 19 Apr 07:20:25 07:26:42 24° 306° (NW) 07:32:43 29.400- 29.500
CUTE-I 19 Apr 07:21:22 07:26:40 71° 101° (ESE) 07:31:59 437.470
Cubesat XI-IV 19 Apr 07:28:42 07:34:03 83° 103° (ESE) 07:39:23 437.490
STRAND 1 19 Apr 07:30:30 07:35:33 60° 259° (WSW) 07:40:37 437.568
JAS-2 19 Apr 07:36:37 07:37:53 10° 309° (NW) 07:38:45 435.910
PRISM 19 Apr 07:37:48 07:41:30 29° 264° (W) 07:45:11 437.425
Cosmos 2499 19 Apr 07:45:20 07:52:59 48° 270° (W) 08:00:00 435.465 / 435.565
BRITE-PL 19 Apr 08:23:55 08:27:39 22° 93° (E) 08:31:42 437.365/2234.400
O/OREOS (USA 219) 19 Apr 08:31:40 08:33:43 13° 50° (NE) 08:35:58 437.305
CANX-2 19 Apr 08:37:30 08:39:24 13° 88° (E) 08:41:30 2200.000
SEEDS 19 Apr 08:42:35 08:43:17 10° 87° (E) 08:44:16 437.485
CUTE 1.7 + AOD 2 19 Apr 08:47:20 08:49:47 15° 90° (E) 08:52:24 437.475
GOMX 1 19 Apr 08:48:46 08:52:51 26° 94° (E) 08:57:12 467.674
CUTE-I 19 Apr 09:02:58 09:06:14 16° 298° (WNW) 09:09:18 437.470
Cubesat XI-IV 19 Apr 09:10:47 09:13:32 14° 300° (WNW) 09:16:02 437.490
HO-68 19 Apr 09:12:14 09:18:50 39° 97° (E) 09:25:28 435.675
AAUSAT CUBESAT 2 19 Apr 09:15:37 09:18:27 18° 91° (E) 09:21:24 437.432
Cosmos 2491 19 Apr 09:21:58 09:27:59 21° 61° (ENE) 09:34:24 435.465 / 435.565
Oscar 11 19 Apr 09:28:29 09:29:52 12° 88° (E) 09:31:31 145.826/435.025
DELFI C3 19 Apr 09:39:55 09:40:36 10° 88° (E) 09:41:32 145.870
ANTELSAT 19 Apr 09:45:11 09:48:15 19° 66° (ENE) 09:51:30 437.575/2403.000
UWE-3 19 Apr 09:55:04 09:58:10 18° 90° (E) 10:01:24 435.000/436.395/437.385
DOVE 4 19 Apr 09:59:57 10:04:54 86° 100° (E) 10:10:07 437.250
CINEMA 3 19 Apr 10:00:51 10:05:33 47° 98° (E) 10:10:24 145.822/145.860
COMPASS 1 19 Apr 10:01:20 10:05:34 70° 101° (E) 10:09:44 437.405
BRITE-PL 19 Apr 10:01:46 10:06:20 43° 287° (WNW) 10:11:11 437.365/2234.400
PCSat 19 Apr 10:04:52 10:10:11 61° 116° (ESE) 10:15:33 145.827
QB50P2 19 Apr 10:09:02 10:11:31 16° 66° (ENE) 10:14:11 145.880/145.840
O/OREOS (USA 219) 19 Apr 10:09:16 10:13:47 73° 250° (WSW) 10:18:13 437.305
CANX-2 19 Apr 10:11:33 10:15:46 54° 286° (WNW) 10:19:56 2200.000
SEEDS 19 Apr 10:15:24 10:19:39 66° 285° (WNW) 10:23:50 437.485
CUTE 1.7 + AOD 2 19 Apr 10:21:53 10:26:01 46° 287° (WNW) 10:30:06 437.475
FUNcube-1 19 Apr 10:23:36 10:27:29 27° 94° (E) 10:31:25 145.935
GOMX 1 19 Apr 10:26:31 10:31:02 37° 289° (WNW) 10:35:47 467.674
POPSAT HIP 1 19 Apr 10:31:05 10:34:32 26° 69° (ENE) 10:38:06 437.405
NANOSAT C BR1 19 Apr 10:31:15 10:34:42 26° 69° (ENE) 10:38:15 145.865
YUBILEINY 19 Apr 10:31:55 10:38:00 22° 81° (E) 10:44:31 435.215
TIGRISAT 19 Apr 10:37:35 10:41:57 63° 74° (ENE) 10:46:29 435.000
UNISAT 6 19 Apr 10:38:29 10:42:53 66° 75° (ENE) 10:47:26 437.425
UKube-1 19 Apr 10:41:20 10:44:46 23° 94° (E) 10:48:17 .
AISAT 19 Apr 10:42:37 10:44:14 12° 89° (E) 10:46:05 437.250
ZACube-1 19 Apr 10:45:35 10:50:03 47° 99° (E) 10:54:29 437.345
CUBEBUG 2 19 Apr 10:48:46 10:53:32 78° 103° (ESE) 10:58:18 437.445
AAUSAT CUBESAT 2 19 Apr 10:50:21 10:54:16 37° 288° (WNW) 10:58:07 437.432
50 SAT 19 Apr 10:55:17 10:57:51 17° 91° (E) 11:00:33 437.505
POLYITAN 1 19 Apr 10:56:42 11:00:46 51° 73° (ENE) 11:04:54 437.675
HO-68 19 Apr 10:59:56 11:06:37 42° 295° (WNW) 11:13:12 435.675
Oscar 11 19 Apr 11:02:14 11:06:34 62° 285° (WNW) 11:10:51 145.826/435.025
DUCHIFAT 1 19 Apr 11:06:43 11:10:50 64° 75° (ENE) 11:15:01 145.980
DELFI C3 19 Apr 11:12:13 11:16:14 59° 285° (WNW) 11:20:11 145.870
Cosmos 2491 19 Apr 11:17:21 11:26:14 87° 262° (W) 11:35:05 435.465 / 435.565
QB50P1 19 Apr 11:19:23 11:23:36 89° 257° (WSW) 11:27:50 145.935-145.965
ANTELSAT 19 Apr 11:20:29 11:24:43 43° 262° (W) 11:29:06 437.575/2403.000
DX 1 19 Apr 11:23:21 11:27:43 73° 102° (ESE) 11:32:04 434.975-435.025
UWE-3 19 Apr 11:30:28 11:34:59 47° 287° (WNW) 11:39:28 435.000/436.395/437.385
BUGSAT 1 19 Apr 11:34:00 11:38:03 87° 263° (W) 11:42:05 437.445
CINEMA 3 19 Apr 11:38:49 11:42:29 21° 293° (WNW) 11:46:05 145.822/145.860
HUMSAT D 19 Apr 11:39:11 11:43:34 88° 106° (ESE) 11:47:54 437.325/437.525
COMPASS 1 19 Apr 11:39:23 11:40:44 11° 296° (WNW) 11:41:52 437.405
DOVE 4 19 Apr 11:40:04 11:42:08 12° 297° (WNW) 11:43:59 437.250
QB50P2 19 Apr 11:43:02 11:47:06 46° 261° (W) 11:51:11 145.880/145.840
PCSat 19 Apr 11:49:46 11:54:04 23° 315° (NW) 11:58:17 145.827
FUNcube-1 19 Apr 11:59:46 12:03:48 30° 290° (WNW) 12:07:46 145.935
VELOX 1 19 Apr 12:01:55 12:06:23 87° 103° (ESE) 12:10:49 145.980
POPSAT HIP 1 19 Apr 12:06:49 12:10:23 26° 265° (W) 12:13:56 437.405
NANOSAT C BR1 19 Apr 12:06:57 12:10:31 26° 265° (W) 12:14:03 145.865
AISAT 19 Apr 12:16:56 12:21:20 63° 286° (WNW) 12:25:44 437.250
UKube-1 19 Apr 12:17:08 12:20:58 31° 290° (WNW) 12:24:46 .
TIGRISAT 19 Apr 12:17:19 12:19:15 12° 273° (W) 12:20:58 435.000
AIST 1 19 Apr 12:17:26 12:20:58 25° 73° (ENE) 12:24:33
UNISAT 6 19 Apr 12:18:34 12:20:16 12° 273° (W) 12:21:42 437.425
SO-50 19 Apr 12:21:53 12:23:09 11° 108° (ESE) 12:24:44 436.795
ZACube-1 19 Apr 12:22:52 12:26:04 18° 294° (WNW) 12:29:10 437.345
YUBILEINY 19 Apr 12:25:09 12:34:00 77° 279° (W) 12:42:53 435.215
CUBEBUG 2 19 Apr 12:27:35 12:29:39 12° 297° (WNW) 12:31:31 437.445
CUBEBUG 1 19 Apr 12:28:25 12:32:47 82° 101° (ESE) 12:37:08 437.445
50 SAT 19 Apr 12:29:06 12:32:53 38° 288° (WNW) 12:36:38 437.505
ESTCUBE 1 19 Apr 12:30:49 12:35:20 85° 283° (WNW) 12:39:48 437.505/2401.250
POLYITAN 1 19 Apr 12:34:54 12:37:05 13° 271° (W) 12:39:04 437.675
TISAT 1 19 Apr 12:38:25 12:41:39 21° 93° (E) 12:44:58 437.305
SPROUT 19 Apr 12:41:16 12:45:02 29° 96° (E) 12:48:51 437.525
DUCHIFAT 1 19 Apr 12:46:15 12:47:12 10° 272° (W) 12:47:53 145.980
DX 1 19 Apr 13:01:56 13:03:27 11° 298° (WNW) 13:04:44 434.975-435.025
BEESAT 2 19 Apr 13:06:12 13:09:52 30° 48° (NE) 13:13:31 435.950
Oscar 19 19 Apr 13:07:36 13:12:25 43° 70° (ENE) 13:17:19 437.125/150
BEESAT 3 19 Apr 13:13:52 13:17:46 41° 51° (NE) 13:21:38 437.485
Cosmos 2491 19 Apr 13:16:36 13:21:57 17° 282° (WNW) 13:26:47 435.465 / 435.565
Gurwin Techsat 1B 19 Apr 13:16:58 13:19:53 16° 62° (ENE) 13:23:02 435.225
AIST 2 19 Apr 13:23:26 13:26:22 18° 42° (NE) 13:29:21 435.215
ITAMSAT 1 19 Apr 13:27:37 13:31:29 22° 65° (ENE) 13:35:29 435.822/435.867
Cosmos 2504 19 Apr 13:45:31 13:53:20 39° 87° (E) 14:01:22 435.465 / 435.565
AIST 1 19 Apr 13:55:03 13:58:35 25° 270° (W) 14:02:01
SO-50 19 Apr 13:58:24 14:03:03 82° 302° (WNW) 14:07:54 436.795
CUBEBUG 1 19 Apr 14:08:00 14:08:35 10° 298° (WNW) 14:08:55 437.445
ITUPSAT 1 19 Apr 14:09:44 14:14:00 32° 96° (E) 14:18:16 437.325
TISAT 1 19 Apr 14:13:43 14:17:31 32° 290° (WNW) 14:21:17 437.305
JAS-2 19 Apr 14:16:43 14:20:34 15° 55° (NE) 14:24:46 435.910
SPROUT 19 Apr 14:17:29 14:21:02 25° 291° (WNW) 14:24:31 437.525
YUBILEINY 19 Apr 14:27:24 14:32:42 16° 303° (WNW) 14:37:28 435.215
ISS 19 Apr 14:34:05 14:37:10 42° 139° (SE) 14:40:18 145.825
AO-7 19 Apr 14:34:58 14:41:21 27° 56° (NE) 14:47:58 29.400- 29.500
HORYU 2 19 Apr 14:39:53 14:42:41 17° 65° (ENE) 14:45:38 437.375
BEESAT 2 19 Apr 14:44:25 14:47:55 27° 246° (WSW) 14:51:20 435.950
BEESAT 19 Apr 14:44:50 14:49:37 76° 102° (ESE) 14:54:23 436.000
SWISSCUBE 19 Apr 14:46:08 14:50:55 85° 104° (ESE) 14:55:41 437.505
Oscar 19 19 Apr 14:47:55 14:52:00 23° 268° (W) 14:55:59 437.125/150
BEESAT 3 19 Apr 14:52:37 14:55:32 18° 248° (WSW) 14:58:18 437.485
Gurwin Techsat 1B 19 Apr 14:54:01 14:59:19 74° 257° (WSW) 15:04:40 435.225
RS-15 19 Apr 14:55:02 15:04:32 38° 108° (ESE) 15:14:24 29.354- 29.394
KKS-1 19 Apr 14:57:48 15:00:57 19° 92° (E) 15:04:12 437.445
AIST 2 19 Apr 15:01:10 15:05:20 56° 241° (WSW) 15:09:24 435.215
ITAMSAT 1 19 Apr 15:05:42 15:10:42 48° 261° (W) 15:15:43 435.822/435.867
Cosmos 2504 19 Apr 15:38:05 15:46:36 49° 286° (WNW) 15:55:07 435.465 / 435.565
SO-50 19 Apr 15:41:41 15:44:27 15° 324° (NW) 15:47:07 436.795
ITUPSAT 1 19 Apr 15:47:46 15:51:48 27° 292° (WNW) 15:55:44 437.325
JAS-2 19 Apr 15:56:42 16:04:23 67° 72° (ENE) 16:12:08 435.910
STARS 19 Apr 16:08:26 16:12:53 70° 101° (ESE) 16:17:19 437.465
ISS 19 Apr 16:10:46 16:13:39 28° 336° (NNW) 16:16:32 145.825
HORYU 2 19 Apr 16:14:38 16:18:59 49° 261° (W) 16:23:22 437.375
BEESAT 19 Apr 16:24:43 16:26:55 13° 298° (WNW) 16:28:53 436.000
AO-7 19 Apr 16:25:12 16:33:30 75° 255° (WSW) 16:41:49 29.400- 29.500
SWISSCUBE 19 Apr 16:26:30 16:28:10 11° 299° (WNW) 16:29:34 437.505
KKS-1 19 Apr 16:33:34 16:37:47 40° 289° (WNW) 16:41:58 437.445
GONETS M04 19 Apr 16:47:45 16:55:25 37° 87° (E) 17:03:20
RS-15 19 Apr 17:05:38 17:16:26 63° 310° (NW) 17:27:29 29.354- 29.394
CUTE-I 19 Apr 17:06:07 17:09:10 16° 62° (ENE) 17:12:27 437.470
PCSat 19 Apr 17:12:21 17:13:06 10° 33° (NNE) 17:14:05 145.827
Cubesat XI-IV 19 Apr 17:13:04 17:16:36 19° 63° (ENE) 17:20:19 437.490
JAS-2 19 Apr 17:43:29 17:49:57 27° 270° (W) 17:56:14 435.910
MOZHAYETS 4 19 Apr 17:46:42 17:51:20 81° 102° (ESE) 17:55:55
STARS 19 Apr 17:46:53 17:48:50 12° 297° (WNW) 17:50:34 437.465
ISS 19 Apr 17:49:00 17:50:49 14° 356° (N) 17:52:38 145.825
DANDE 19 Apr 18:05:28 18:07:35 19° 88° (E) 18:10:07 436.750
CUSAT 1 19 Apr 18:09:57 18:12:45 35° 92° (E) 18:16:20 437.405
AO-7 19 Apr 18:23:52 18:27:53 13° 275° (W) 18:31:15 29.400- 29.500
Cosmos 2499 19 Apr 18:28:25 18:35:30 29° 84° (E) 18:42:48 435.465 / 435.565
M-CUBED/EXP-1 PRIME 19 Apr 18:34:43 18:38:16 24° 97° (E) 18:41:41 437.505
VERMONT LUNAR 19 Apr 18:43:18 18:44:05 11° 147° (SSE) 18:44:58 437.305
CUTE-I 19 Apr 18:43:25 18:48:44 72° 258° (WSW) 18:54:05 437.470
GONETS M04 19 Apr 18:43:42 18:52:07 48° 286° (WNW) 19:00:33
Cubesat XI-IV 19 Apr 18:51:00 18:56:17 60° 259° (WSW) 19:01:34 437.490
PCSat 19 Apr 18:52:42 18:57:59 49° 55° (NE) 19:03:14 145.827
CUBESAT XI-V 19 Apr 19:04:02 19:08:22 40° 97° (E) 19:12:43 437.345
PRISM 19 Apr 19:19:51 19:23:38 35° 98° (E) 19:27:25 437.425
AUBIESAT-1 19 Apr 19:22:58 19:27:23 75° 106° (ESE) 19:31:25 437.475
RS-15 19 Apr 19:23:01 19:31:46 25° 341° (NNW) 19:40:35 29.354- 29.394
ISS 19 Apr 19:25:43 19:28:07 19° 16° (NNE) 19:30:33 145.825
MOZHAYETS 4 19 Apr 19:26:26 19:27:59 11° 298° (WNW) 19:29:16
CANX-2 19 Apr 19:32:18 19:33:04 11° 63° (ENE) 19:34:04 2200.000
BRITE-PL 19 Apr 19:36:12 19:39:14 21° 68° (ENE) 19:42:24 437.365/2234.400
STRAND 1 19 Apr 19:40:58 19:45:51 45° 98° (E) 19:50:44 437.568
HO-68 19 Apr 19:41:22 19:47:21 31° 62° (ENE) 19:53:30 435.675
PHONESAT 2.4 19 Apr 19:41:33 19:42:51 12° 147° (SSE) 19:44:16 2401.200-2431.200
CUTE 1.7 + AOD 2 19 Apr 19:41:34 19:43:13 12° 64° (ENE) 19:45:03 437.475
DANDE 19 Apr 19:49:02 19:50:56 15° 296° (WNW) 19:52:58 436.750
CUSAT 1 19 Apr 19:55:16 19:56:10 11° 301° (WNW) 19:56:55 437.405
GOMX 1 19 Apr 19:58:13 20:01:27 23° 68° (ENE) 20:04:50 467.674
AAUSAT CUBESAT 2 19 Apr 20:07:41 20:09:42 14° 65° (ENE) 20:11:55 437.432
M-CUBED/EXP-1 PRIME 19 Apr 20:09:14 20:13:12 31° 297° (WNW) 20:16:52 437.505
VERMONT LUNAR 19 Apr 20:17:54 20:21:06 39° 161° (SSE) 20:24:19 437.305
Cosmos 2499 19 Apr 20:19:21 20:28:10 64° 282° (WNW) 20:36:52 435.465 / 435.565
Oscar 11 19 Apr 20:24:59 20:25:28 10° 62° (ENE) 20:26:11 145.826/435.025
PCSat 19 Apr 20:36:49 20:41:07 24° 252° (WSW) 20:45:16 145.827
CUBESAT XI-V 19 Apr 20:42:08 20:45:35 21° 293° (WNW) 20:48:55 437.345
SO-50 19 Apr 20:50:27 20:53:32 17° 37° (NE) 20:56:44 436.795
COMPASS 1 19 Apr 20:52:32 20:56:35 47° 73° (ENE) 21:00:42 437.405
UWE-3 19 Apr 20:53:31 20:55:43 14° 64° (ENE) 20:58:09 435.000/436.395/437.385
PRISM 19 Apr 20:55:55 20:58:54 19° 293° (WNW) 21:01:45 437.425
AUBIESAT-1 19 Apr 20:59:41 21:01:32 12° 304° (NW) 21:03:11 437.475
ISS 19 Apr 21:01:39 21:04:56 79° 37° (NE) 21:08:10 145.825
CINEMA 3 19 Apr 21:03:12 21:07:08 39° 71° (ENE) 21:11:15 145.822/145.860
CANX-2 19 Apr 21:04:09 21:08:26 77° 259° (W) 21:12:46 2200.000
DOVE 4 19 Apr 21:06:16 21:10:25 86° 77° (ENE) 21:14:44 437.250
SEEDS 19 Apr 21:07:10 21:11:26 86° 77° (ENE) 21:15:45 437.485
BRITE-PL 19 Apr 21:13:58 21:17:40 31° 264° (W) 21:21:23 437.365/2234.400
CUTE 1.7 + AOD 2 19 Apr 21:14:23 21:18:39 65° 259° (W) 21:22:57 437.475
PHONESAT 2.4 19 Apr 21:17:13 21:20:36 41° 161° (SSE) 21:24:00 2401.200-2431.200
FUNcube-1 19 Apr 21:20:07 21:23:17 21° 67° (ENE) 21:26:39 145.935
STRAND 1 19 Apr 21:20:51 21:24:48 22° 295° (WNW) 21:28:37 437.568
HO-68 19 Apr 21:27:44 21:34:46 55° 259° (W) 21:41:49 435.675
GOMX 1 19 Apr 21:35:55 21:39:32 28° 265° (W) 21:43:11 467.674
UKube-1 19 Apr 21:36:43 21:39:55 21° 67° (ENE) 21:43:15 .
AAUSAT CUBESAT 2 19 Apr 21:40:47 21:44:55 55° 260° (W) 21:49:05 437.432
RS-15 19 Apr 21:40:54 21:49:23 24° 15° (NNE) 21:58:18 29.354- 29.394
AISAT 19 Apr 21:41:22 21:42:59 12° 63° (ENE) 21:44:49 437.250
ZACube-1 19 Apr 21:41:53 21:45:46 36° 71° (ENE) 21:49:49 437.345
50 SAT 19 Apr 21:42:57 21:43:48 11° 64° (ENE) 21:44:52 437.505
CUBEBUG 2 19 Apr 21:47:11 21:51:24 64° 75° (ENE) 21:55:47 437.445
VERMONT LUNAR 19 Apr 21:55:07 21:58:30 78° 178° (S) 22:01:53 437.305
Oscar 11 19 Apr 21:56:43 22:01:04 81° 258° (WSW) 22:05:27 145.826/435.025
DELFI C3 19 Apr 21:59:28 22:03:34 83° 77° (ENE) 22:07:41 145.870
DX 1 19 Apr 22:18:54 22:23:10 64° 75° (ENE) 22:27:29 434.975-435.025
Cosmos 2499 19 Apr 22:19:16 22:23:27 13° 305° (NW) 22:27:00 435.465 / 435.565
Cosmos 2491 19 Apr 22:24:44 22:30:46 22° 81° (E) 22:37:11 435.465 / 435.565
UWE-3 19 Apr 22:27:38 22:31:49 55° 260° (W) 22:36:10 435.000/436.395/437.385
SO-50 19 Apr 22:29:50 22:34:50 89° 34° (NNE) 22:39:46 436.795
COMPASS 1 19 Apr 22:30:08 22:32:36 15° 270° (W) 22:34:55 437.405
TIGRISAT 19 Apr 22:30:48 22:33:12 14° 89° (E) 22:35:49 435.000
HUMSAT D 19 Apr 22:30:57 22:35:04 61° 75° (ENE) 22:39:16 437.325/437.525
UNISAT 6 19 Apr 22:31:50 22:34:26 15° 89° (E) 22:37:15 437.425
YUBILEINY 19 Apr 22:35:28 22:44:01 55° 75° (ENE) 22:52:32 435.215
ISS 19 Apr 22:39:39 22:40:54 12° 230° (SW) 22:42:00 145.825
CINEMA 3 19 Apr 22:41:39 22:44:36 18° 270° (W) 22:47:29 145.822/145.860
O/OREOS (USA 219) 19 Apr 22:45:00 22:46:53 13° 100° (E) 22:49:00 437.305
DUCHIFAT 1 19 Apr 22:54:28 22:54:55 10° 88° (E) 22:55:41 145.980
PHONESAT 2.4 19 Apr 22:55:09 22:58:44 78° 178° (S) 23:02:18 2401.200-2431.200
FUNcube-1 19 Apr 22:55:32 22:59:26 34° 264° (W) 23:03:26 145.935
